This demonstration page uses our WeatherBlox Daily Observations layout. Learn more.

Left ArrowRight Arrow

Hourly Observations for September 18, 2018

Temp ( °F °C ) Dew Point ( °F °C ) Humidity (%) Winds ( mph kmh ) Pressure ( in mb ) Visibility ( mi km ) Precip ( " mm )
12:54 am 00:54 Clear 78 25.6 70 21.1 76 76 S 10 17 29.87 1012 10 16 N/A
1:54 am 01:54 Clear 76 24.4 70 21.1 82 82 S 8 13 29.88 1012 10 16 N/A
2:54 am 02:54 Clear 75 23.9 69 20.6 82 82 S 7 11 29.87 1012 9 14 N/A
3:54 am 03:54 Clear 74 23.3 69 20.6 85 85 undefined N/A 29.86 1011 9 14 N/A
4:54 am 04:54 Clear 74 23.3 69 20.6 85 85 S 5 7 29.86 1011 9 14 N/A
5:54 am 05:54 Clear 71 21.7 68 20 90 90 S 7 11 29.86 1011 8 13 N/A
6:54 am 06:54 Clear 72 22.2 68 20 87 87 S 6 9 29.87 1011 8 13 N/A
7:54 am 07:54 Sunny 73 22.8 69 20.6 87 87 N N/A 29.88 1012 7 11 N/A
8:54 am 08:54 Sunny 77 25 70 21.1 79 79 S 6 9 29.88 1012 8 13 N/A
9:54 am 09:54 Sunny 82 27.8 70 21.1 67 67 SSW 8 13 29.87 1012 10 16 N/A
10:54 am 10:54 Mostly Sunny 86 30 69 20.6 57 57 WSW 6 9 29.88 1012 10 16 N/A
11:54 am 11:54 Sunny 89 31.7 70 21.1 53 53 undefined N/A 29.87 1012 10 16 N/A
12:54 pm 12:54 Sunny 90 32.2 69 20.6 50 50 N N/A 29.86 1011 10 16 N/A
1:54 pm 13:54 Mostly Cloudy 90 32.2 71 21.7 54 54 NNE 13 20 29.84 1010 10 16 N/A
2:54 pm 14:54 Cloudy with Light Rain 82 27.8 68 20 63 63 NNE 18 30 29.83 1010 9 14 N/A
3:23 pm 15:23 Cloudy with Nearby Thunderstorms 81 27.2 67 19.4 62 62 NE 23 37 29.83 1010 9 14 N/A
3:54 pm 15:54 Partly Cloudy with Light Rain 85 29.4 68 20 57 57 ENE 21 33 29.84 1011 10 16 N/A
4:15 pm 16:15 Partly Cloudy with Nearby Thunderstorms 79 26.1 67 19.4 67 67 NNE 20 31 29.85 1011 8 13 N/A
4:23 pm 16:23 Mostly Cloudy with Nearby Thunderstorms 76 24.4 65 18.3 69 69 NNE 38 61 29.85 1011 8 13 N/A
4:30 pm 16:30 Windy with Storms Likely 75 23.9 64 17.8 69 69 ENE 31 50 29.85 1011 8 13 N/A
4:50 pm 16:50 Mostly Cloudy with Nearby Thunderstorms 73 23 64 18 74 74 E 22 35 29.83 1010 10 16 N/A
4:51 pm 16:51 Mostly Cloudy with Nearby Thunderstorms 73 22.8 65 18.3 76 76 E 24 39 29.86 1011 10 16 N/A
5:14 pm 17:14 Sunny with Light Rain 73 22.8 65 18.3 76 76 E 23 37 29.83 1010 10 16 N/A
5:54 pm 17:54 Sunny 73 22.8 65 18.3 76 76 ESE 15 24 29.86 1011 10 16 N/A
6:54 pm 18:54 Sunny 74 23.3 65 18.3 74 74 SSE 7 11 29.84 1011 10 16 N/A
7:54 pm 19:54 Clear 73 22.8 64 17.8 74 74 SE 10 17 29.86 1011 10 16 N/A
8:54 pm 20:54 Clear 72 22.2 64 17.8 76 76 ESE 8 13 29.86 1011 10 16 N/A
9:54 pm 21:54 Clear 71 21.7 65 18.3 81 81 SE 5 7 29.87 1012 10 16 N/A
10:54 pm 22:54 Clear 71 21.7 65 18.3 81 81 SE 7 11 29.86 1011 10 16 N/A
11:54 pm 23:54 Clear 70 21.1 66 18.9 87 87 ESE 5 7 29.85 1011 10 16 N/A

Powered by AerisWeather